Regional Weather Roundup
Issued by NWS

Home | Current Version | Previous Version | Text Only | Print | Product List | Glossary On
Versions: 1 2 3 4 5 6 7 8 9 10 11 12 13 14 15 16 17 18 19 20 21 22 23 24 25 26 27 28 29 30 31 32 33 34 35 36 37 38 39 40 41 42 43 44 45 46 47 48 49 50
000
ASUS44 KLUB 161210
RWRTX

WEST TEXAS WEATHER ROUNDUP
NATIONAL WEATHER SERVICE LUBBOCK TX
ISSUED BY NWS AMARILLO TX
700 AM CDT TUE SEP 16 2014

NOTE: "FAIR" INDICATES FEW OR NO CLOUDS BELOW 12,000 FEET WITH NO
SIGNIFICANT WEATHER AND/OR OBSTRUCTIONS TO VISIBILITY.

TXZ006-008-012-026-029-035-037-161300-
TEXAS PANHANDLE/SOUTH PLAINS

CITY           SKY/WX    TMP DP  RH WIND       PRES   REMARKS
DALHART        FOG       58  56  93 S7        30.27S VSB 1/4
6HR MIN TEMP:  58; 6HR MAX TEMP:  62;

PERRYTON       CLOUDY    59  57  91 CALM      30.24R
6HR MIN TEMP:  56; 6HR MAX TEMP:  60;

BORGER         CLOUDY    62  57  83 CALM      30.24F
6HR MIN TEMP:  60; 6HR MAX TEMP:  62;

AMARILLO       CLOUDY    59  58  96 N7        30.26S FOG
6HR MIN TEMP:  57; 6HR MAX TEMP:  59;

CHILDRESS      MOCLDY    66  61  84 N8        30.17S
6HR MIN TEMP:  66; 6HR MAX TEMP:  75;

LUBBOCK        CLOUDY    64  60  87 N7        30.22S
6HR MIN TEMP:  64; 6HR MAX TEMP:  69;

PLAINVIEW      CLOUDY    60  57  91 N7        30.23R
6HR MIN TEMP:  60; 6HR MAX TEMP:  65;

$$

TXZ060>062-072-075-082-161300-
PERMIAN BASIN/TRANS PECOS/CONCHO VALLEY/BIG COUNTRY

CITY           SKY/WX    TMP DP  RH WIND       PRES   REMARKS
WINK           CLOUDY    70  67  90 E5        30.16S
6HR MIN TEMP:  70; 6HR MAX TEMP:  71; 6HR PCP: TRACE;

ODESSA         CLOUDY    69  66  90 E3        30.20S
6HR MIN TEMP:  68; 6HR MAX TEMP:  70; 6HR PCP:  0.02;

MIDLAND        CLOUDY    69  67  93 CALM      30.18S
6HR MIN TEMP:  69; 6HR MAX TEMP:  72; 6HR PCP: TRACE;

FORT STOCKTON  CLOUDY    66  65  96 E6        30.18R FOG
6HR MIN TEMP:  66; 6HR MAX TEMP:  69;

DRYDEN           N/A     72  67  84 NE7       30.12R
6HR MIN TEMP:  72; 6HR MAX TEMP:  74;

SAN ANGELO     CLOUDY    71  69  93 NE3       30.15R
6HR MIN TEMP:  71; 6HR MAX TEMP:  74; 6HR PCP:  0.02;

SWEETWATER     CLOUDY    72  68  87 S6        30.20S
6HR MIN TEMP:  72; 6HR MAX TEMP:  73;

$$

TXZ055-057-080-161300-
FAR WEST/SOUTHWEST MOUNTAINS

CITY           SKY/WX    TMP DP  RH WIND       PRES   REMARKS
EL PASO        LGT RAIN  66  64  93 N9        30.19S
6HR MIN TEMP:  65; 6HR MAX TEMP:  71; 6HR PCP:  0.45;

MARFA          MOCLDY    61  61 100 CALM      30.26S
6HR MIN TEMP:  61; 6HR MAX TEMP:  64;

GUADALUPE PASS LGT RAIN  61  61 100 NE25      30.28F VSB 1/4
6HR MIN TEMP:  61; 6HR MAX TEMP:  62; 6HR PCP:  0.24;

$$



USA.gov is the U.S. government's official web portal to all federal, state and local government web resources and services.